When you browse on this site, cookies collect data to enhance your experience and personalize the content and advertising you see.
Visit our Privacy Policy to learn more. By continuing to use the site, you agree to this use of cookies and data.
  • In Deutschland
  • Länderverzeichnis
  • Für 7 Tage
  • Wassertemperatur
  • Satellitenkarten
  • Wetterkarte
  • Widgets
  • user-avatar
    Anmelden

    Stündliche Wetter Porto Real do Colégio

    Heute, 18 November, Sonntag

    Zeit Temperatur Niederschläge Wind Luftdruck Luftfeuchtigkeit
    00:00 +26°C° 0 mm 3 m/S 760 mmHg 87%
    01:00 +26°C° 0 mm 3 m/S 760 mmHg 88%
    02:00 +26°C° 0.1 mm 3 m/S 760 mmHg 89%
    03:00 +26°C° 0.1 mm 2 m/S 759 mmHg 89%
    04:00 +25°C° 0.1 mm 2 m/S 759 mmHg 90%
    05:00 +26°C° 0.1 mm 3 m/S 759 mmHg 88%
    06:00 +26°C° 0.1 mm 3 m/S 760 mmHg 85%
    07:00 +27°C° 0.1 mm 4 m/S 760 mmHg 83%
    08:00 +28°C° 0.1 mm 4 m/S 760 mmHg 74%
    09:00 +30°C° 0.1 mm 5 m/S 760 mmHg 65%
    10:00 +33°C° 0.1 mm 6 m/S 760 mmHg 57%
    11:00 +33°C° 0 mm 6 m/S 760 mmHg 54%
    12:00 +34°C° 0 mm 5 m/S 760 mmHg 51%
    13:00 +35°C° 0 mm 5 m/S 759 mmHg 48%
    14:00 +35°C° 0 mm 6 m/S 759 mmHg 49%
    15:00 +34°C° 0 mm 6 m/S 759 mmHg 50%
    16:00 +34°C° 0 mm 6 m/S 758 mmHg 52%
    17:00 +32°C° 0 mm 5 m/S 758 mmHg 58%
    18:00 +30°C° 0 mm 5 m/S 759 mmHg 65%
    19:00 +28°C° 0 mm 4 m/S 759 mmHg 71%
    20:00 +27°C° 0 mm 4 m/S 759 mmHg 75%
    21:00 +27°C° 0 mm 3 m/S 760 mmHg 79%
    22:00 +26°C° 0 mm 3 m/S 760 mmHg 83%
    23:00 +26°C° 0 mm 3 m/S 760 mmHg 84%

    Morgen, 19 November, Montag

    Zeit Temperatur Niederschläge Wind Luftdruck Luftfeuchtigkeit
    00:00 +26°C° 0 mm 2 m/S 760 mmHg 85%
    01:00 +25°C° 0 mm 2 m/S 759 mmHg 87%
    02:00 +25°C° 0 mm 2 m/S 759 mmHg 87%
    03:00 +25°C° 0 mm 2 m/S 759 mmHg 87%
    04:00 +25°C° 0 mm 2 m/S 758 mmHg 87%
    05:00 +26°C° 0 mm 2 m/S 758 mmHg 84%
    06:00 +26°C° 0 mm 2 m/S 759 mmHg 82%
    07:00 +27°C° 0 mm 2 m/S 759 mmHg 79%
    08:00 +29°C° 0 mm 3 m/S 759 mmHg 70%
    09:00 +32°C° 0 mm 4 m/S 760 mmHg 60%
    10:00 +34°C° 0 mm 4 m/S 760 mmHg 51%
    11:00 +34°C° 0 mm 5 m/S 759 mmHg 50%
    12:00 +34°C° 0 mm 5 m/S 759 mmHg 49%
    13:00 +35°C° 0 mm 5 m/S 759 mmHg 48%
    14:00 +35°C° 0 mm 5 m/S 758 mmHg 49%
    15:00 +34°C° 0 mm 5 m/S 758 mmHg 49%
    16:00 +34°C° 0 mm 5 m/S 757 mmHg 50%
    17:00 +33°C° 0 mm 5 m/S 757 mmHg 56%
    18:00 +30°C° 0 mm 4 m/S 758 mmHg 62%
    19:00 +29°C° 0 mm 4 m/S 758 mmHg 68%
    20:00 +28°C° 0 mm 4 m/S 758 mmHg 73%
    21:00 +27°C° 0 mm 3 m/S 759 mmHg 77%
    22:00 +27°C° 0 mm 3 m/S 760 mmHg 81%
    23:00 +26°C° 0 mm 3 m/S 760 mmHg 83%

    übermorgen, 20 November, Dienstag

    Zeit Temperatur Niederschläge Wind Luftdruck Luftfeuchtigkeit
    00:00 +26°C° 0 mm 3 m/S 760 mmHg 86%
    01:00 +26°C° 0 mm 2 m/S 760 mmHg 88%
    02:00 +26°C° 0 mm 2 m/S 759 mmHg 89%
    03:00 +26°C° 0 mm 2 m/S 759 mmHg 90%
    04:00 +25°C° 0 mm 2 m/S 759 mmHg 90%
    05:00 +26°C° 0 mm 2 m/S 759 mmHg 87%
    06:00 +26°C° 0 mm 3 m/S 760 mmHg 84%
    07:00 +27°C° 0 mm 3 m/S 760 mmHg 80%
    08:00 +29°C° 0 mm 4 m/S 760 mmHg 70%
    09:00 +32°C° 0 mm 5 m/S 760 mmHg 60%
    10:00 +34°C° 0 mm 5 m/S 760 mmHg 50%
    11:00 +35°C° 0 mm 6 m/S 760 mmHg 48%
    12:00 +36°C° 0 mm 6 m/S 759 mmHg 46%
    13:00 +36°C° 0 mm 6 m/S 759 mmHg 44%
    14:00 +36°C° 0 mm 6 m/S 758 mmHg 46%
    15:00 +35°C° 0 mm 7 m/S 758 mmHg 48%
    16:00 +34°C° 0 mm 7 m/S 757 mmHg 50%
    17:00 +33°C° 0 mm 6 m/S 758 mmHg 57%
    18:00 +30°C° 0 mm 5 m/S 758 mmHg 64%
    19:00 +29°C° 0 mm 5 m/S 759 mmHg 71%
    20:00 +28°C° 0 mm 4 m/S 759 mmHg 75%
    21:00 +28°C° 0 mm 4 m/S 760 mmHg 79%
    22:00 +27°C° 0 mm 4 m/S 760 mmHg 83%
    23:00 +27°C° 0.1 mm 3 m/S 760 mmHg 85%

    21 November, Mittwoch

    Zeit Temperatur Niederschläge Wind Luftdruck Luftfeuchtigkeit
    00:00 +26°C° 0.1 mm 3 m/S 760 mmHg 86%
    01:00 +26°C° 0.1 mm 3 m/S 760 mmHg 88%
    02:00 +26°C° 0.1 mm 3 m/S 760 mmHg 88%
    03:00 +26°C° 0.1 mm 3 m/S 759 mmHg 89%
    04:00 +26°C° 0.1 mm 3 m/S 759 mmHg 90%
    05:00 +26°C° 0.1 mm 3 m/S 759 mmHg 88%
    06:00 +27°C° 0.1 mm 3 m/S 759 mmHg 85%
    07:00 +27°C° 0.1 mm 4 m/S 760 mmHg 82%
    08:00 +29°C° 0 mm 4 m/S 760 mmHg 73%
    09:00 +30°C° 0 mm 5 m/S 760 mmHg 65%
    10:00 +33°C° 0 mm 6 m/S 761 mmHg 56%
    11:00 +33°C° 0.1 mm 6 m/S 760 mmHg 55%
    12:00 +34°C° 0.1 mm 6 m/S 760 mmHg 54%
    13:00 +34°C° 0.1 mm 6 m/S 759 mmHg 54%
    14:00 +34°C° 0 mm 6 m/S 759 mmHg 55%
    15:00 +33°C° 0 mm 6 m/S 758 mmHg 56%
    16:00 +33°C° 0 mm 7 m/S 758 mmHg 57%
    17:00 +32°C° 0 mm 6 m/S 758 mmHg 62%
    18:00 +29°C° 0 mm 6 m/S 759 mmHg 68%
    19:00 +28°C° 0 mm 5 m/S 759 mmHg 73%
    20:00 +28°C° 0 mm 5 m/S 760 mmHg 75%
    21:00 +27°C° 0 mm 4 m/S 760 mmHg 76%
    22:00 +27°C° 0 mm 4 m/S 760 mmHg 78%
    23:00 +27°C° 0 mm 4 m/S 760 mmHg 80%

    22 November, Donnerstag

    Zeit Temperatur Niederschläge Wind Luftdruck Luftfeuchtigkeit
    00:00 +26°C° 0 mm 3 m/S 760 mmHg 81%
    01:00 +26°C° 0 mm 3 m/S 759 mmHg 83%
    02:00 +26°C° 0.1 mm 3 m/S 759 mmHg 84%
    03:00 +25°C° 0.1 mm 3 m/S 759 mmHg 85%
    04:00 +25°C° 0.1 mm 2 m/S 758 mmHg 86%
    05:00 +26°C° 0.1 mm 3 m/S 759 mmHg 84%
    06:00 +26°C° 0.1 mm 3 m/S 759 mmHg 82%
    07:00 +27°C° 0.1 mm 3 m/S 759 mmHg 80%
    08:00 +29°C° 0.1 mm 4 m/S 759 mmHg 72%
    09:00 +30°C° 0.1 mm 5 m/S 759 mmHg 63%
    10:00 +33°C° 0.1 mm 6 m/S 760 mmHg 55%
    11:00 +34°C° 0 mm 6 m/S 759 mmHg 53%
    12:00 +34°C° 0 mm 6 m/S 759 mmHg 50%
    13:00 +35°C° 0 mm 6 m/S 758 mmHg 48%
    14:00 +34°C° 0 mm 6 m/S 758 mmHg 49%
    15:00 +34°C° 0 mm 6 m/S 757 mmHg 51%
    16:00 +33°C° 0 mm 6 m/S 757 mmHg 52%
    17:00 +32°C° 0 mm 6 m/S 757 mmHg 58%
    18:00 +30°C° 0 mm 5 m/S 758 mmHg 64%
    19:00 +28°C° 0 mm 4 m/S 758 mmHg 69%
    20:00 +28°C° 0.1 mm 4 m/S 759 mmHg 72%
    21:00 +27°C° 0.1 mm 4 m/S 759 mmHg 76%
    22:00 +27°C° 0.1 mm 3 m/S 760 mmHg 79%
    23:00 +27°C° 0.1 mm 3 m/S 759 mmHg 81%

    23 November, Freitag

    Zeit Temperatur Niederschläge Wind Luftdruck Luftfeuchtigkeit
    00:00 +26°C° 0.1 mm 3 m/S 759 mmHg 82%
    01:00 +26°C° 0.1 mm 3 m/S 759 mmHg 84%
    02:00 +26°C° 0.1 mm 2 m/S 758 mmHg 85%
    03:00 +25°C° 0.1 mm 2 m/S 758 mmHg 86%
    04:00 +25°C° 0.1 mm 2 m/S 758 mmHg 88%
    05:00 +26°C° 0 mm 2 m/S 758 mmHg 86%
    06:00 +26°C° 0 mm 3 m/S 758 mmHg 84%
    07:00 +27°C° 0 mm 3 m/S 759 mmHg 82%
    08:00 +29°C° 0.1 mm 4 m/S 759 mmHg 73%
    09:00 +30°C° 0.1 mm 4 m/S 759 mmHg 65%
    10:00 +33°C° 0.1 mm 5 m/S 759 mmHg 57%
    11:00 +34°C° 0.2 mm 5 m/S 758 mmHg 55%
    12:00 +34°C° 0.2 mm 6 m/S 758 mmHg 53%
    13:00 +35°C° 0.2 mm 6 m/S 757 mmHg 52%
    14:00 +34°C° 0.4 mm 6 m/S 757 mmHg 55%
    15:00 +33°C° 0.4 mm 6 m/S 757 mmHg 58%
    16:00 +32°C° 0.4 mm 6 m/S 756 mmHg 62%
    17:00 +30°C° 0 mm 6 m/S 757 mmHg 67%
    18:00 +29°C° 0 mm 5 m/S 757 mmHg 71%
    19:00 +28°C° 0 mm 5 m/S 758 mmHg 76%
    20:00 +28°C° 0 mm 4 m/S 758 mmHg 79%
    21:00 +28°C° 0 mm 4 m/S 759 mmHg 81%
    22:00 +27°C° 0 mm 4 m/S 759 mmHg 83%
    23:00 +27°C° 0 mm 3 m/S 759 mmHg 84%
    Mehr zeigen